Location: Hemaruka
(51.7801°N, 111.0917°W)
Time: 06:15:23
(UTC+00:00)

NOAA 15 - Pass Details

Date: 16 December 2023
Orbit: 797 x 810 km, 98.6° (Epoch: 04 March)

Event Time Altitude Azimuth Distance (km) Brightness Sun altitude
Rises 02:56:46 0° 191° (S) 3,311 7.9 -33.0°
Reaches altitude 10° 02:59:19 10° 201° (SSW) 2,383 7.2 -33.4°
Maximum altitude 03:04:03 33° 265° (W) 1,324 6.1 -34.1°
Drops below altitude 10° 03:08:49 10° 329° (NNW) 2,391 7.4 -34.8°
Sets 03:11:23 0° 339° (NNW) 3,324 8.1 -35.2°
